• In Hungary
  • List of Countries
  • For 7 days
  • Water Temperature
  • Satellite Maps
  • Weather Map
  • News
  • Weather Widgets
  • user-avatar
    Login

    Hourly Weather Puente del Inca

    Today, 25 May, Friday

    Time Temperature Precipitation Wind Pressure Humidity
    00:00 -5°C° 0 mm 2 mps 484 mmHg 11%
    01:00 -4°C° 0 mm 2 mps 484 mmHg 15%
    02:00 -5°C° 0 mm 2 mps 484 mmHg 15%
    03:00 -5°C° 0 mm 2 mps 484 mmHg 16%
    04:00 -5°C° 0 mm 2 mps 484 mmHg 16%
    05:00 -5°C° 0 mm 2 mps 484 mmHg 15%
    06:00 -5°C° 0 mm 2 mps 484 mmHg 14%
    07:00 -5°C° 0 mm 3 mps 484 mmHg 7%
    08:00 -2°C° 0 mm 2 mps 486 mmHg 8%
    09:00 +2°C° 0 mm 2 mps 488 mmHg 9%
    10:00 +4°C° 0 mm 2 mps 490 mmHg 9%
    11:00 +5°C° 0 mm 2 mps 490 mmHg 10%
    12:00 +5°C° 0 mm 2 mps 490 mmHg 10%
    13:00 +5°C° 0 mm 3 mps 490 mmHg 11%
    14:00 +4°C° 0 mm 2 mps 489 mmHg 10%
    15:00 +3°C° 0 mm 2 mps 488 mmHg 9%
    16:00 +2°C° 0 mm 2 mps 487 mmHg 9%
    17:00 +1°C° 0 mm 2 mps 486 mmHg 8%
    18:00 -2°C° 0 mm 2 mps 485 mmHg 7%
    19:00 -3°C° 0 mm 2 mps 484 mmHg 7%
    20:00 -4°C° 0 mm 3 mps 484 mmHg 7%
    21:00 -4°C° 0 mm 3 mps 484 mmHg 6%
    22:00 -4°C° 0 mm 3 mps 483 mmHg 6%
    23:00 -5°C° 0 mm 3 mps 483 mmHg 7%

    Tomorrow, 26 May, Saturday

    Time Temperature Precipitation Wind Pressure Humidity
    00:00 -5°C° 0 mm 3 mps 483 mmHg 7%
    01:00 -5°C° 0 mm 3 mps 483 mmHg 8%
    02:00 -5°C° 0 mm 3 mps 482 mmHg 8%
    03:00 -6°C° 0 mm 3 mps 482 mmHg 9%
    04:00 -6°C° 0 mm 3 mps 482 mmHg 9%
    05:00 -6°C° 0 mm 3 mps 482 mmHg 8%
    06:00 -6°C° 0 mm 3 mps 482 mmHg 8%
    07:00 -6°C° 0 mm 3 mps 482 mmHg 7%
    08:00 -4°C° 0 mm 4 mps 484 mmHg 9%
    09:00 -2°C° 0 mm 4 mps 485 mmHg 11%
    10:00 0°C° 0 mm 4 mps 487 mmHg 13%
    11:00 +1°C° 0 mm 4 mps 487 mmHg 14%
    12:00 +1°C° 0 mm 4 mps 487 mmHg 15%
    13:00 +1°C° 0 mm 5 mps 487 mmHg 16%
    14:00 0°C° 0 mm 4 mps 486 mmHg 15%
    15:00 0°C° 0 mm 3 mps 486 mmHg 15%
    16:00 0°C° 0 mm 3 mps 485 mmHg 15%
    17:00 -2°C° 0 mm 3 mps 485 mmHg 15%
    18:00 -4°C° 0 mm 3 mps 485 mmHg 15%
    19:00 -5°C° 0 mm 3 mps 484 mmHg 15%
    20:00 -5°C° 0 mm 3 mps 484 mmHg 14%
    21:00 -4°C° 0 mm 2 mps 484 mmHg 14%
    22:00 -4°C° 0 mm 2 mps 484 mmHg 14%
    23:00 -4°C° 0 mm 2 mps 484 mmHg 15%

    Day after tomorrow, 27 May, Sunday

    Time Temperature Precipitation Wind Pressure Humidity
    00:00 -5°C° 0 mm 2 mps 484 mmHg 16%
    01:00 -5°C° 0 mm 2 mps 484 mmHg 17%
    02:00 -5°C° 0 mm 2 mps 484 mmHg 17%
    03:00 -5°C° 0 mm 2 mps 483 mmHg 16%
    04:00 -5°C° 0 mm 2 mps 483 mmHg 16%
    05:00 -5°C° 0 mm 2 mps 483 mmHg 15%
    06:00 -5°C° 0 mm 2 mps 483 mmHg 15%
    07:00 -5°C° 0 mm 2 mps 483 mmHg 14%
    08:00 -2°C° 0 mm 2 mps 485 mmHg 14%
    09:00 +1°C° 0 mm 2 mps 487 mmHg 13%
    10:00 +4°C° 0 mm 2 mps 489 mmHg 13%
    11:00 +4°C° 0 mm 2 mps 489 mmHg 13%
    12:00 +4°C° 0 mm 3 mps 489 mmHg 14%
    13:00 +4°C° 0 mm 3 mps 488 mmHg 14%
    14:00 +3°C° 0 mm 3 mps 487 mmHg 14%
    15:00 +2°C° 0 mm 3 mps 486 mmHg 14%
    16:00 +2°C° 0 mm 2 mps 485 mmHg 14%
    17:00 -1°C° 0 mm 2 mps 485 mmHg 14%
    18:00 -2°C° 0 mm 3 mps 484 mmHg 15%
    19:00 -4°C° 0 mm 3 mps 483 mmHg 15%
    20:00 -5°C° 0 mm 3 mps 483 mmHg 14%
    21:00 -5°C° 0 mm 3 mps 483 mmHg 13%
    22:00 -5°C° 0 mm 3 mps 482 mmHg 12%
    23:00 -5°C° 0 mm 3 mps 482 mmHg 12%

    28 May, Monday

    Time Temperature Precipitation Wind Pressure Humidity
    00:00 -5°C° 0 mm 3 mps 482 mmHg 11%
    01:00 -6°C° 0 mm 3 mps 481 mmHg 11%
    02:00 -6°C° 0 mm 3 mps 481 mmHg 11%
    03:00 -6°C° 0 mm 3 mps 481 mmHg 12%
    04:00 -6°C° 0 mm 3 mps 480 mmHg 13%
    05:00 -7°C° 0 mm 4 mps 481 mmHg 14%
    06:00 -7°C° 0 mm 4 mps 481 mmHg 15%
    07:00 -7°C° 0 mm 4 mps 481 mmHg 17%
    08:00 -4°C° 0 mm 4 mps 482 mmHg 19%
    09:00 -3°C° 0 mm 4 mps 484 mmHg 22%
    10:00 -1°C° 0 mm 5 mps 485 mmHg 25%
    11:00 -2°C° 0 mm 5 mps 484 mmHg 28%
    12:00 -2°C° 0 mm 5 mps 484 mmHg 32%
    13:00 -2°C° 0 mm 5 mps 483 mmHg 36%
    14:00 -5°C° 0.5 mm 5 mps 482 mmHg 45%
    15:00 -6°C° 0.5 mm 5 mps 481 mmHg 55%
    16:00 -7°C° 0.5 mm 5 mps 481 mmHg 64%
    17:00 -8°C° 0.9 mm 5 mps 480 mmHg 66%
    18:00 -8°C° 0.9 mm 5 mps 480 mmHg 67%
    19:00 -8°C° 0.9 mm 5 mps 480 mmHg 68%
    20:00 -8°C° 0.8 mm 5 mps 480 mmHg 68%
    21:00 -8°C° 0.8 mm 5 mps 480 mmHg 68%
    22:00 -8°C° 0.8 mm 5 mps 480 mmHg 69%
    23:00 -8°C° 0.6 mm 5 mps 480 mmHg 70%

    29 May, Tuesday

    Time Temperature Precipitation Wind Pressure Humidity
    00:00 -8°C° 0.6 mm 5 mps 480 mmHg 71%
    01:00 -8°C° 0.6 mm 5 mps 480 mmHg 72%
    02:00 -8°C° 0.6 mm 5 mps 480 mmHg 73%
    03:00 -8°C° 0.6 mm 5 mps 480 mmHg 75%
    04:00 -8°C° 0.6 mm 5 mps 480 mmHg 76%
    05:00 -8°C° 0.6 mm 4 mps 480 mmHg 77%
    06:00 -8°C° 0.6 mm 4 mps 481 mmHg 78%
    07:00 -8°C° 0.6 mm 4 mps 481 mmHg 79%
    08:00 -7°C° 0.7 mm 4 mps 482 mmHg 78%
    09:00 -7°C° 0.7 mm 4 mps 483 mmHg 77%
    10:00 -5°C° 0.7 mm 4 mps 483 mmHg 75%
    11:00 -5°C° 0.9 mm 4 mps 483 mmHg 76%
    12:00 -5°C° 0.9 mm 4 mps 483 mmHg 77%
    13:00 -5°C° 0.9 mm 3 mps 483 mmHg 79%
    14:00 -5°C° 1.4 mm 3 mps 483 mmHg 80%
    15:00 -6°C° 1.4 mm 3 mps 483 mmHg 82%
    16:00 -6°C° 1.4 mm 3 mps 483 mmHg 84%
    17:00 -7°C° 0.4 mm 3 mps 482 mmHg 83%
    18:00 -8°C° 0.4 mm 3 mps 482 mmHg 83%
    19:00 -7°C° 0.4 mm 2 mps 482 mmHg 83%
    20:00 -10°C° 0 mm 3 mps 481 mmHg 80%
    21:00 -12°C° 0 mm 3 mps 480 mmHg 77%
    22:00 -13°C° 0 mm 3 mps 479 mmHg 74%
    23:00 -13°C° 0 mm 3 mps 480 mmHg 73%

    30 May, Wednesday

    Time Temperature Precipitation Wind Pressure Humidity
    00:00 -13°C° 0 mm 3 mps 480 mmHg 73%
    01:00 -13°C° 0 mm 3 mps 480 mmHg 72%
    02:00 -14°C° 0 mm 3 mps 479 mmHg 73%
    03:00 -15°C° 0 mm 3 mps 478 mmHg 75%
    04:00 -15°C° 0 mm 3 mps 478 mmHg 76%
    05:00 -16°C° 0 mm 3 mps 478 mmHg 76%
    06:00 -16°C° 0 mm 3 mps 477 mmHg 76%
    07:00 -17°C° 0 mm 3 mps 477 mmHg 75%
    08:00 -15°C° 0 mm 3 mps 479 mmHg 70%
    09:00 -13°C° 0 mm 3 mps 480 mmHg 65%
    10:00 -10°C° 0 mm 3 mps 481 mmHg 60%
    11:00 -9°C° 0 mm 3 mps 481 mmHg 58%
    12:00 -9°C° 0 mm 3 mps 481 mmHg 55%
    13:00 -9°C° 0 mm 3 mps 481 mmHg 53%
    14:00 -10°C° 0 mm 3 mps 480 mmHg 58%
    15:00 -12°C° 0 mm 3 mps 479 mmHg 62%
    16:00 -12°C° 0 mm 2 mps 478 mmHg 67%
    17:00 -15°C° 0 mm 3 mps 478 mmHg 68%
    18:00 -16°C° 0 mm 3 mps 477 mmHg 69%
    19:00 -18°C° 0 mm 3 mps 476 mmHg 69%
    20:00 -18°C° 0 mm 3 mps 476 mmHg 67%
    21:00 -18°C° 0 mm 3 mps 476 mmHg 65%
    22:00 -18°C° 0 mm 3 mps 476 mmHg 62%
    23:00 -19°C° 0 mm 3 mps 476 mmHg 57%
    Show more